Wind_Speed
7 6 6 7 7 7 7 7 6 6 6 6 6 5 5 5 5 4 4 4 4 4 4 4 5 6 5 5 6 6 6 6 6 6 6 7 7 7 7 8 8 8 8
7 7 6 6 6 7 7 7 7 6 6 6 6 6 5 5 4 5 5 5 5 5 6 6 6 6 6 6 7 7 7 7 7 7 8 8 8 9 9 9 9 9 9
7 7 7 6 6 6 7 7 7 7 6 7 7 7 6 6 6 5 5 5 6 6 6 7 7 7 7 7 8 9 9 9 9 10 10 10 10 10 10 10 10 10 11
8 8 8 8 7 7 8 8 8 8 8 8 8 8 7 7 7 7 6 7 7 8 8 8 8 9 9 9 9 10 11 11 11 12 12 12 12 12 12 11 11 12 13
9 9 9 8 8 8 9 9 9 9 9 9 10 9 8 8 8 8 8 9 9 9 10 10 10 10 11 11 11 12 12 13 13 14 14 14 15 15 14 13 13 14 14
11 10 10 9 9 10 11 11 10 10 10 11 11 11 11 10 10 10 10 10 10 11 11 11 12 13 13 13 13 13 14 14 14 15 16 16 16 17 16 16 16 16 16
13 12 11 11 11 13 13 12 12 11 11 12 13 13 13 12 12 12 12 12 12 12 12 13 14 13 14 15 15 15 16 16 16 17 17 17 17 18 18 18 18 18 18
14 13 14 13 14 14 13 13 12 12 13 13 14 14 14 14 13 13 14 14 14 14 14 15 16 16 17 17 18 18 18 18 18 19 19 19 19 20 20 20 20 20 20
15 15 15 15 14 14 13 13 14 14 14 14 15 15 15 15 15 16 16 16 16 16 16 17 17 17 18 19 19 20 20 21 21 21 21 21 21 21 22 22 22 22 21
16 16 16 16 16 15 14 15 15 16 16 16 16 16 16 17 17 18 18 18 18 18 17 18 19 19 20 21 21 21 22 22 23 23 23 23 23 23 23 24 24 24 23
17 16 17 17 17 18 17 17 17 17 17 17 17 18 18 19 20 20 19 20 20 20 20 20 20 21 21 22 23 23 24 24 24 25 25 24 24 24 24 25 25 25 25
20 19 19 18 17 18 19 19 18 19 19 18 19 19 19 21 21 21 21 21 21 21 22 22 23 24 24 24 25 26 26 25 25 26 26 25 26 25 26 26 26 26 26
22 21 21 21 21 21 21 22 21 20 21 20 20 21 21 22 22 22 22 23 23 24 25 25 26 26 26 26 27 27 27 27 27 27 27 28 27 26 26 27 27 27 27
23 23 24 23 23 22 22 23 23 22 22 22 23 23 23 23 23 24 25 25 25 25 26 27 28 29 29 29 28 28 28 28 28 29 29 28 28 27 27 27 28 28 28
25 26 26 25 25 25 25 25 25 24 25 25 25 24 24 24 25 25 26 26 27 28 29 29 30 30 30 30 30 30 30 30 30 30 30 30 30 30 30 29 28 28 28
27 27 27 26 26 26 26 26 26 27 27 27 27 27 27 27 27 28 28 28 29 30 31 31 30 30 30 31 31 31 31 31 32 33 33 33 33 32 32 31 31 30 30
28 28 28 27 27 27 27 27 28 28 29 30 29 29 29 29 30 31 31 32 32 32 33 32 31 31 31 32 32 33 33 32 33 33 33 34 34 34 34 33 33 32 32
29 28 28 28 28 29 29 29 30 30 31 32 33 32 32 32 33 33 34 34 34 35 35 34 34 33 33 33 34 34 34 34 34 34 34 35 35 35 35 35 34 34 34
30 29 29 30 30 31 31 31 32 33 33 34 35 35 34 34 35 35 35 35 36 36 36 35 35 36 35 35 35 35 35 35 35 36 36 37 37 36 36 36 36 35 35
31 31 31 31 32 33 33 33 33 34 34 35 36 37 37 37 37 37 37 37 37 38 37 37 37 37 37 37 36 36 37 37 37 37 37 37 37 37 37 38 38 38 37
32 32 32 32 33 34 34 35 36 36 36 37 37 38 38 38 38 38 39 39 38 38 38 37 38 38 38 37 37 37 37 38 38 37 37 37 38 38 38 38 39 39 38
32 32 33 33 34 34 35 36 37 37 38 38 38 38 39 39 39 40 40 40 40 39 38 38 38 38 39 39 39 39 39 39 39 38 38 38 39 39 38 38 38 38 38
32 33 34 34 34 35 36 37 37 37 38 39 39 39 40 40 41 42 42 40 40 39 39 39 38 39 39 40 40 39 38 38 39 38 37 38 39 39 38 38 37 37 38
35 35 35 35 35 36 37 37 38 38 39 39 40 40 41 41 41 41 41 41 41 41 41 39 39 39 39 39 39 39 39 39 39 38 37 37 38 38 38 38 38 38 38
35 35 35 36 36 37 37 38 39 39 40 40 40 40 41 41 40 41 41 41 42 42 40 39 39 39 39 39 39 38 38 38 38 38 38 37 36 37 37 37 37 37 37
36 36 36 36 37 37 38 39 39 40 40 40 40 41 41 41 40 40 40 40 40 40 39 39 39 39 39 39 39 38 38 38 37 37 37 36 35 36 36 35 35 35 36
Wind_Direction
354 357 355 358 4 6 5 8 9 13 16 11 8 2 358 2 3 359 357 358 353 338 326 339 330 325 321 316 322 323 317 317 320 319 318 318 319 317 316 314 310 310 312
347 347 348 346 350 351 355 358 1 0 5 3 1 356 351 347 342 333 334 332 331 331 326 321 320 322 316 313 314 317 314 309 310 311 312 313 314 312 312 308 303 302 308
333 337 343 344 338 339 343 343 342 343 345 345 344 344 341 335 329 324 320 319 317 313 317 316 312 312 315 313 312 310 311 308 305 306 305 306 307 309 305 300 302 300 299
322 323 326 329 328 331 331 330 329 327 327 328 329 329 327 324 320 317 314 313 317 312 307 308 307 306 309 308 308 311 307 308 307 306 306 304 301 303 298 294 296 299 298
311 314 314 314 319 321 322 323 321 320 320 320 321 320 321 317 315 315 313 309 308 307 305 304 303 302 304 306 307 308 307 306 307 306 307 305 302 302 297 294 295 296 297
308 304 304 301 308 313 314 312 311 310 310 311 312 315 317 314 315 313 310 308 306 304 306 304 301 297 297 301 302 304 308 308 306 305 306 306 305 304 299 294 295 296 295
298 298 300 301 304 307 308 307 305 306 307 308 307 306 307 306 308 309 306 306 304 303 304 304 301 296 294 295 296 298 302 304 302 301 301 301 301 302 301 299 296 295 294
287 291 296 300 302 303 304 303 304 306 306 307 308 304 306 305 304 306 306 306 303 302 300 301 302 300 298 296 294 294 298 299 300 300 299 298 298 298 298 296 295 294 291
286 290 291 294 296 299 301 301 303 302 302 302 305 302 303 305 302 304 304 303 302 299 296 298 300 300 299 298 297 296 296 296 297 297 296 296 296 296 295 294 294 292 293
282 286 290 294 294 291 295 299 298 298 299 300 300 299 300 301 301 301 301 300 299 298 296 297 299 298 298 298 297 296 297 296 297 297 297 295 296 295 295 293 291 291 290
283 284 285 286 290 293 295 297 298 298 300 299 298 297 299 299 301 301 300 298 299 299 297 298 298 297 296 297 297 295 296 295 294 295 296 295 295 295 294 292 289 288 289
284 283 282 282 284 288 290 292 293 295 296 297 296 296 295 296 297 297 297 297 298 299 299 297 296 297 297 296 297 296 294 294 293 293 293 293 293 292 292 292 290 289 291
285 282 282 281 282 285 288 289 291 293 292 292 292 293 293 293 294 295 296 296 294 296 298 295 294 296 298 297 295 294 293 292 291 291 292 293 293 291 292 291 291 292 293
281 281 281 281 280 283 286 285 286 287 286 288 290 290 290 290 291 293 295 296 296 296 299 298 298 298 297 295 293 294 294 293 292 290 290 291 291 290 290 291 291 292 292
279 279 280 280 280 282 284 284 284 284 285 286 287 287 288 288 289 291 294 296 296 295 295 295 296 297 298 297 294 292 292 291 290 289 289 290 289 289 289 289 289 289 289
278 278 277 278 278 280 281 281 283 285 286 285 286 287 290 292 292 293 295 296 297 297 297 295 294 296 296 296 295 293 291 289 289 288 287 287 288 289 288 288 287 287 287
278 278 278 276 277 278 280 280 281 283 284 286 286 287 289 290 291 293 293 294 295 296 296 293 292 293 293 294 295 295 293 291 290 289 288 287 287 287 286 286 286 286 286
276 275 276 275 277 279 280 280 279 280 283 284 286 286 286 287 288 290 291 292 293 293 293 292 291 291 291 292 293 293 291 289 289 289 288 287 286 285 284 283 283 284 285
275 275 277 277 278 279 279 279 279 280 281 283 283 285 284 285 286 288 289 290 291 291 291 291 290 290 290 291 292 292 291 289 288 287 287 286 285 284 283 283 283 283 283
275 276 278 278 277 278 279 280 280 281 282 282 283 283 283 284 286 287 288 290 291 289 289 290 291 291 292 291 291 290 290 289 288 287 286 286 284 282 281 281 282 281 281
277 277 278 277 278 278 279 280 280 281 282 284 284 284 285 286 286 288 289 290 290 290 290 290 291 292 292 292 292 291 290 289 288 287 286 286 285 283 282 282 281 281 280
277 277 278 279 279 279 279 279 280 281 282 284 284 286 286 286 287 288 288 288 288 289 290 291 291 292 292 292 292 291 289 289 288 288 288 287 286 286 284 283 283 281 280
278 279 279 280 279 279 279 279 280 281 282 283 284 285 285 286 287 287 287 287 288 289 289 290 292 292 292 292 291 291 291 290 289 288 288 287 285 283 283 282 282 281 280
280 280 280 280 280 280 281 282 283 282 282 283 285 285 286 287 287 286 287 287 289 290 291 291 292 292 292 292 291 292 291 290 289 288 287 287 285 283 282 282 281 281 280
280 280 280 280 281 281 281 281 282 282 283 284 285 286 286 286 286 286 286 287 289 291 291 292 293 293 293 293 294 293 292 291 290 288 288 287 286 284 283 282 281 280 279
279 279 280 281 282 283 283 282 282 283 284 284 284 285 286 286 286 287 288 288 289 289 290 291 292 293 294 293 293 292 291 292 291 290 289 288 287 285 283 283 282 281 280
Height
5915 5915 5914 5914 5913 5913 5913 5912 5912 5911 5911 5910 5910 5910 5910 5909 5909 5909 5909 5908 5908 5908 5907 5908 5907 5907 5907 5907 5906 5906 5905 5905 5904 5903 5903 5903 5901 5901 5900 5900 5900 5899 5899
5916 5915 5914 5914 5914 5914 5913 5912 5912 5912 5911 5911 5910 5910 5910 5909 5909 5909 5909 5908 5908 5908 5907 5907 5907 5907 5906 5906 5905 5905 5904 5903 5903 5903 5902 5901 5900 5899 5898 5898 5897 5897 5896
5916 5915 5915 5914 5914 5914 5913 5913 5912 5912 5912 5911 5911 5910 5910 5909 5909 5908 5908 5908 5908 5907 5907 5907 5906 5906 5906 5905 5904 5904 5903 5902 5902 5901 5900 5899 5899 5898 5897 5895 5895 5894 5894
5916 5915 5915 5914 5914 5913 5913 5913 5912 5912 5911 5911 5910 5910 5909 5909 5908 5908 5907 5907 5907 5906 5906 5905 5905 5904 5904 5903 5903 5902 5901 5900 5899 5898 5897 5896 5895 5894 5894 5893 5892 5892 5891
5915 5915 5914 5913 5913 5913 5912 5912 5911 5911 5910 5910 5909 5909 5908 5907 5907 5906 5906 5906 5906 5905 5904 5903 5903 5902 5902 5901 5900 5899 5898 5897 5897 5895 5894 5893 5892 5891 5890 5890 5889 5889 5888
5914 5914 5913 5912 5912 5912 5911 5911 5910 5910 5909 5908 5908 5907 5907 5906 5906 5905 5905 5904 5904 5903 5902 5900 5900 5900 5900 5899 5898 5897 5896 5894 5893 5892 5891 5890 5889 5888 5887 5886 5885 5884 5884
5913 5912 5912 5911 5910 5910 5910 5909 5909 5908 5907 5907 5906 5905 5905 5904 5903 5903 5902 5902 5901 5901 5900 5899 5898 5897 5896 5896 5895 5894 5893 5891 5890 5889 5888 5886 5885 5884 5883 5882 5881 5880 5879
5911 5910 5910 5909 5909 5908 5907 5907 5906 5906 5905 5904 5904 5903 5902 5901 5901 5900 5900 5899 5898 5898 5897 5896 5895 5894 5893 5892 5891 5890 5889 5888 5886 5885 5884 5883 5881 5880 5879 5878 5876 5875 5874
5907 5907 5907 5906 5905 5905 5905 5905 5904 5903 5903 5902 5901 5900 5899 5899 5898 5897 5897 5896 5895 5894 5893 5893 5892 5890 5889 5888 5887 5886 5885 5884 5882 5881 5879 5878 5877 5875 5874 5873 5871 5870 5869
5904 5904 5904 5903 5903 5902 5901 5902 5901 5900 5900 5899 5898 5897 5896 5896 5895 5894 5893 5892 5891 5890 5889 5888 5887 5886 5885 5884 5883 5882 5880 5879 5878 5876 5875 5873 5872 5870 5869 5868 5866 5864 5863
5900 5901 5901 5901 5900 5899 5898 5899 5898 5897 5896 5896 5895 5894 5893 5892 5891 5890 5889 5888 5887 5886 5885 5883 5882 5881 5880 5879 5878 5876 5875 5873 5872 5870 5869 5868 5866 5865 5863 5862 5860 5858 5857
5897 5896 5897 5897 5897 5896 5895 5894 5893 5893 5892 5892 5891 5890 5889 5888 5887 5886 5885 5884 5882 5881 5880 5878 5877 5875 5874 5873 5871 5870 5868 5867 5865 5864 5863 5861 5860 5858 5857 5855 5853 5852 5850
5894 5893 5893 5893 5892 5891 5891 5889 5889 5888 5888 5887 5886 5886 5885 5883 5882 5881 5880 5879 5877 5876 5874 5872 5871 5869 5868 5866 5865 5863 5862 5860 5859 5857 5856 5854 5853 5851 5850 5849 5847 5845 5844
5891 5889 5888 5888 5887 5886 5886 5885 5885 5884 5883 5882 5881 5881 5880 5878 5877 5876 5875 5873 5871 5870 5868 5866 5864 5862 5861 5859 5857 5856 5855 5853 5852 5850 5849 5847 5845 5844 5843 5841 5840 5839 5837
5885 5885 5883 5883 5882 5882 5881 5880 5880 5879 5878 5877 5876 5875 5873 5872 5871 5870 5868 5867 5865 5863 5861 5859 5857 5855 5853 5851 5850 5849 5847 5846 5844 5842 5841 5839 5838 5837 5835 5834 5832 5831 5830
5879 5879 5878 5877 5877 5876 5875 5874 5874 5873 5871 5870 5869 5868 5867 5866 5864 5863 5862 5860 5858 5856 5854 5852 5850 5848 5846 5844 5842 5841 5839 5837 5836 5834 5832 5831 5830 5828 5827 5825 5824 5823 5821
5872 5872 5871 5871 5871 5870 5869 5868 5868 5867 5865 5864 5863 5861 5860 5858 5857 5856 5854 5853 5851 5849 5846 5844 5842 5840 5838 5836 5834 5832 5830 5828 5827 5825 5823 5822 5820 5819 5818 5816 5815 5814 5812
5865 5864 5864 5864 5863 5863 5862 5862 5860 5859 5858 5857 5856 5854 5853 5851 5849 5848 5846 5844 5842 5840 5838 5836 5834 5832 5829 5827 5825 5823 5821 5819 5818 5816 5814 5813 5811 5809 5808 5807 5806 5805 5804
5857 5857 5856 5856 5856 5855 5854 5853 5852 5851 5850 5849 5848 5846 5844 5843 5841 5839 5837 5835 5833 5831 5829 5827 5824 5822 5820 5818 5816 5813 5811 5809 5808 5806 5804 5803 5801 5800 5798 5797 5796 5795 5794
5849 5849 5848 5848 5848 5847 5846 5845 5844 5843 5841 5840 5839 5837 5835 5833 5831 5829 5828 5826 5824 5822 5819 5817 5815 5812 5810 5808 5805 5803 5801 5799 5797 5795 5794 5792 5791 5789 5787 5786 5785 5785 5784
5841 5840 5840 5839 5839 5838 5837 5836 5835 5834 5833 5831 5829 5828 5825 5823 5821 5819 5817 5815 5813 5811 5809 5807 5805 5802 5800 5798 5795 5792 5790 5788 5786 5784 5783 5781 5779 5778 5776 5775 5774 5773 5773
5832 5831 5831 5830 5830 5829 5827 5826 5825 5824 5823 5822 5820 5818 5816 5814 5811 5810 5807 5803 5802 5800 5798 5796 5794 5792 5790 5788 5785 5783 5780 5777 5775 5773 5771 5770 5768 5766 5765 5764 5762 5762 5761
5823 5822 5822 5821 5820 5819 5818 5816 5815 5814 5813 5811 5810 5808 5806 5804 5802 5799 5797 5793 5791 5789 5787 5785 5783 5781 5779 5777 5774 5772 5769 5767 5764 5762 5760 5758 5756 5755 5754 5752 5751 5750 5749
5814 5813 5812 5811 5810 5809 5808 5807 5805 5804 5803 5801 5799 5797 5795 5793 5791 5788 5786 5783 5781 5779 5777 5774 5772 5770 5768 5765 5763 5761 5758 5756 5753 5751 5749 5747 5745 5743 5742 5741 5739 5738 5737
5805 5804 5803 5802 5801 5799 5798 5796 5795 5793 5792 5790 5788 5786 5784 5782 5780 5777 5775 5773 5771 5768 5766 5764 5761 5759 5757 5754 5752 5749 5747 5744 5742 5740 5738 5736 5734 5732 5730 5729 5728 5726 5726
5795 5794 5793 5792 5791 5789 5788 5786 5785 5783 5781 5780 5778 5776 5773 5771 5769 5767 5764 5762 5760 5757 5755 5753 5751 5748 5746 5743 5741 5738 5736 5733 5731 5729 5727 5725 5723 5721 5719 5718 5717 5715 5714